Skip Page Navigation
NASA JPL Caltech
NASA Logo - Jet Propulsion Laboratory + View the NASA Portal
+ Center for Near-Earth Object Studies
JPL Home Earth Solar System Stars & Galaxies Technology
JPL Solar System Dynamics
BODIES ORBITS EPHEMERIDES TOOLS PHYSICAL DATA DISCOVERY FAQ SITE MAP
JPL Small-Body Database Browser
Search: [ help ]  
175768 (1998 VB33)
Classification: Main-belt Asteroid          SPK-ID: 2175768
Ephemeris | Orbit Diagram | Orbital Elements | Mission Design | Physical Parameters | Discovery Circumstances | Close-Approach Data ]

[ show orbit diagram ]
Orbital Elements at Epoch 2459200.5 (2020-Dec-17.0) TDB
Reference: JPL 19 (heliocentric ecliptic J2000)
 Element Value Uncertainty (1-sigma)   Units 
e .2608048608755731 3.1018e-08  
a 2.647584151320515 1.2526e-08 au
q 1.957081335078996 8.2359e-08 au
i 4.955157962137661 4.4613e-06 deg
node 55.5271523806629 6.3021e-05 deg
peri 18.87129387271792 6.4637e-05 deg
M 33.67696621685335 1.4079e-05 deg
tp 2459053.301445099417
(2020-Jul-22.80144510)
6.0892e-05 TDB
period 1573.522965904538
4.31
1.1167e-05
3.057e-08
d
yr
n .2287859839357695 1.6237e-09 deg/d
Q 3.338086967562035 1.5793e-08 au
  Orbit Determination Parameters
   # obs. used (total)      453  
   data-arc span      8169 days (22.37 yr)  
   first obs. used      1998-10-23  
   last obs. used      2021-03-05  
   planetary ephem.      DE441  
   SB-pert. ephem.      SB441-N16  
   condition code      0  
   norm. resid. RMS      .58554  
   source      ORB  
   producer      Otto Matic  
   solution date      2021-Apr-13 21:06:44  

Additional Information
 Earth MOID = .9723 au 
 Jupiter MOID = 1.96473 au 
 T_jup = 3.337 
[ show covariance matrix ]

Ephemeris | Orbit Diagram | Orbital Elements | Mission Design | Physical Parameters | Discovery Circumstances | Close-Approach Data ]

Physical Parameter Table
Parameter Symbol Value Units Sigma Reference Notes
absolute magnitude H 16.4   n/a MPO502970  

175768 (1998 VB33)          Discovered 1998-Nov-11 by Sato, N. at Chichibu
Reference: 20080221/Numbers.arcLast Updated: 2008-02-22

[ show close-approach data ]
Ephemeris | Orbit Diagram | Orbital Elements | Mission Design | Physical Parameters | Discovery Circumstances | Close-Approach Data ]
ABOUT SSD CREDITS/AWARDS PRIVACY/COPYRIGHT GLOSSARY LINKS
FirstGov 2021-Apr-19 05:45 UT
(server date/time)  
NASA Home Page
Site Manager:   Ryan S. Park
Webmaster  Alan B. Chamberlin